Weather History for Rickenbacker, OH

Change the Weather History Date:

Tuesday, May 6, 2014

  Actual Average Record
Temperature  
Mean Temperature 60 °F -  
Max Temperature 73 °F 71 °F 89 °F (2004)
Min Temperature 47 °F 50 °F 42 °F (2005)
Degree Days  
Heating Degree Days 5    
Growing Degree Days 10 (Base 50)    
Moisture  
Dew Point 34 °F    
Average Humidity 38    
Maximum Humidity 66    
Minimum Humidity 21    
Precipitation  
Precipitation 0.00 in - - ()
Sea Level Pressure  
Sea Level Pressure 29.97 in    
Wind  
Wind Speed 7 mph (ENE)    
Max Wind Speed 16 mph    
Max Gust Speed 21 mph    
Visibility 10 miles    
Events      
Averages and records for this station are not official NWS values.
T = Trace of Precipitation, MM = Missing Value Source: NWS Daily Summary

Daily Weather History Graph

Daily Weather History Graph

Search for Another Location

Airport:

Trip Planner

Search our weather history database for the weather conditions in past years. The results will help you decide how hot, cold, wet, or windy it might be!

Date:

Astronomy

May. 06, 2014 Rise Set
Actual Time 6:26 AM EDT 8:31 PM EDT
Civil Twilight 5:56 AM EDT 9:00 PM EDT
Nautical Twilight 5:20 AM EDT 9:37 PM EDT
Astronomical Twilight 4:40 AM EDT 10:16 PM EDT
Moon 12:41 PM EDT (5/6) 1:49 AM EDT (5/6)
Length of Visible Light 15h 04m
Length of Day
14h 04m
Waxing Crescent, 46% of the Moon is Illuminated
May 6
Waxing Crescent
May 6
First Quarter
May 14
Full
May 21
Last Quarter
May 28
New

Hourly Weather History & Observations

Time (EDT) Temp. Dew Point Humidity Pressure Visibility Wind Dir Wind Speed Gust Speed Precip Events Conditions
12:15 AM 49.5 °F 35.2 °F 58% 29.92 in 10.0 mi NNE 5.8 mph - N/A   Clear
12:35 AM 48.9 °F 35.6 °F 60% 29.92 in 10.0 mi North 5.8 mph - N/A   Clear
12:55 AM 48.6 °F 35.4 °F 60% 29.92 in 10.0 mi NNE 4.6 mph - N/A   Clear
1:15 AM 48.4 °F 35.1 °F 60% 29.92 in 10.0 mi North 3.5 mph - N/A   Clear
1:35 AM 48.9 °F 34.9 °F 58% 29.92 in 10.0 mi North 4.6 mph - N/A   Clear
1:55 AM 48.2 °F 34.9 °F 60% 29.92 in 10.0 mi North 3.5 mph - N/A   Clear
2:15 AM 47.7 °F 35.1 °F 62% 29.92 in 10.0 mi North 4.6 mph - N/A   Clear
2:35 AM 47.3 °F 34.9 °F 62% 29.92 in 10.0 mi North 5.8 mph - N/A   Clear
2:55 AM 47.3 °F 34.9 °F 62% 29.92 in 10.0 mi North 5.8 mph - N/A   Clear
3:15 AM 47.1 °F 35.2 °F 63% 29.93 in 10.0 mi North 6.9 mph - N/A   Clear
3:35 AM 47.3 °F 35.6 °F 64% 29.93 in 10.0 mi North 5.8 mph - N/A   Clear
7:55 AM 48.9 °F 37.9 °F 66% 30.00 in 10.0 mi NE 5.8 mph - N/A   Clear
8:15 AM 50.5 °F 37.9 °F 62% 30.00 in 10.0 mi ENE 3.5 mph - N/A   Clear
8:35 AM 52.0 °F 37.4 °F 58% 30.00 in 10.0 mi ENE 6.9 mph - N/A   Clear
8:55 AM 54.1 °F 36.5 °F 51% 30.01 in 10.0 mi ENE 6.9 mph - N/A   Clear
9:15 AM 55.8 °F 36.5 °F 48% 30.01 in 10.0 mi ENE 9.2 mph - N/A   Clear
9:55 AM 57.9 °F 34.3 °F 41% 30.01 in 10.0 mi East 11.5 mph - N/A   Clear
10:15 AM 59.5 °F 34.3 °F 39% 30.01 in 10.0 mi ENE 16.1 mph 20.7 mph N/A   Clear
10:35 AM 60.1 °F 32.9 °F 36% 30.01 in 10.0 mi ENE 12.7 mph 19.6 mph N/A   Clear
10:55 AM 60.6 °F 32.5 °F 35% 30.01 in 10.0 mi East 12.7 mph 19.6 mph N/A   Clear
11:15 AM 61.7 °F 33.3 °F 34% 30.01 in 10.0 mi East 9.2 mph - N/A   Clear
11:35 AM 62.8 °F 34.2 °F 34% 30.01 in 10.0 mi East 10.4 mph - N/A   Clear
11:55 AM 63.5 °F 33.6 °F 33% 30.01 in 10.0 mi ENE 9.2 mph - N/A   Clear
12:15 PM 64.6 °F 32.2 °F 30% 30.00 in 10.0 mi East 9.2 mph 17.3 mph N/A   Clear
12:35 PM 65.3 °F 31.8 °F 29% 30.00 in 10.0 mi East 8.1 mph - N/A   Clear
12:55 PM 66.0 °F 30.4 °F 26% 30.00 in 10.0 mi East 10.4 mph - N/A   Clear
1:15 PM 66.6 °F 30.0 °F 26% 29.99 in 10.0 mi East 8.1 mph - N/A   Clear
1:35 PM 67.5 °F 29.1 °F 24% 29.99 in 10.0 mi East 6.9 mph - N/A   Clear
1:55 PM 68.2 °F 29.5 °F 24% 29.99 in 10.0 mi NE 6.9 mph - N/A   Clear
2:15 PM 68.9 °F 30.4 °F 24% 29.98 in 10.0 mi East 5.8 mph - N/A   Clear
2:35 PM 69.6 °F 31.6 °F 24% 29.98 in 10.0 mi East 6.9 mph - N/A   Clear
2:55 PM 70.2 °F 31.1 °F 24% 29.98 in 10.0 mi East 6.9 mph - N/A   Clear
3:15 PM 70.9 °F 30.2 °F 22% 29.98 in 10.0 mi NE 5.8 mph - N/A   Clear
3:35 PM 71.6 °F 31.1 °F 22% 29.97 in 10.0 mi NE 9.2 mph - N/A   Clear
4:15 PM 72.0 °F 30.4 °F 21% 29.95 in 10.0 mi ENE 10.4 mph - N/A   Clear
4:35 PM 71.6 °F 30.9 °F 22% 29.95 in 10.0 mi East 6.9 mph - N/A   Clear
4:55 PM 72.1 °F 32.2 °F 23% 29.95 in 10.0 mi NE 10.4 mph - N/A   Clear
5:15 PM 72.3 °F 29.8 °F 21% 29.95 in 10.0 mi ENE 9.2 mph - N/A   Clear
5:35 PM 72.7 °F 30.9 °F 21% 29.94 in 10.0 mi NE 8.1 mph - N/A   Clear
5:55 PM 73.0 °F 31.1 °F 21% 29.94 in 10.0 mi ENE 10.4 mph - N/A   Clear
6:15 PM 72.7 °F 31.6 °F 22% 29.95 in 10.0 mi ENE 10.4 mph - N/A   Clear
6:35 PM 72.1 °F 31.1 °F 22% 29.94 in 10.0 mi ENE 10.4 mph - N/A   Clear
6:55 PM 71.8 °F 32.5 °F 24% 29.95 in 10.0 mi ENE 6.9 mph - N/A   Clear
7:15 PM 70.9 °F 33.1 °F 25% 29.95 in 10.0 mi ENE 9.2 mph - N/A   Clear
7:35 PM 70.0 °F 32.9 °F 25% 29.95 in 10.0 mi ENE 9.2 mph - N/A   Clear
7:55 PM 68.7 °F 32.7 °F 26% 29.95 in 10.0 mi ENE 9.2 mph - N/A   Clear
8:15 PM 67.5 °F 32.9 °F 28% 29.95 in 10.0 mi ENE 8.1 mph - N/A   Clear
8:35 PM 66.2 °F 32.9 °F 29% 29.96 in 10.0 mi ENE 8.1 mph - N/A   Clear
8:55 PM 64.9 °F 33.4 °F 31% 29.96 in 10.0 mi ENE 8.1 mph - N/A   Clear
9:15 PM 63.7 °F 34.5 °F 34% 29.96 in 10.0 mi ENE 9.2 mph - N/A   Clear
9:35 PM 61.9 °F 36.1 °F 38% 29.97 in 10.0 mi ENE 8.1 mph - N/A   Clear
9:55 PM 61.5 °F 36.7 °F 40% 29.97 in 10.0 mi ENE 8.1 mph - N/A   Clear
10:15 PM 62.2 °F 37.0 °F 39% 29.97 in 10.0 mi ENE 9.2 mph - N/A   Clear
10:35 PM 62.2 °F 37.4 °F 40% 29.98 in 10.0 mi ENE 9.2 mph - N/A   Clear
10:55 PM 61.9 °F 37.6 °F 41% 29.98 in 10.0 mi ENE 10.4 mph - N/A   Clear
11:15 PM 62.1 °F 37.6 °F 40% 29.97 in 10.0 mi ENE 9.2 mph - N/A   Clear
11:55 PM 61.2 °F 37.8 °F 42% 29.95 in 10.0 mi East 10.4 mph - N/A   Clear